Zurück zum Katalog

JUNO

AktivWissenschaftHCO
NORAD 37773·PAYLOAD·🇺🇸 United States

Gestartet Aug 5, 2011 von Cape Canaveral Space Force Station

Loading…

TLE

VeraltetSource: Space-Track

Epoche: Aug 5, 2011, 16:35 UTC

1 37773U 11040A   11217.69136966 +.00002254 -71274-5 +00000-0 0  9991
2 37773 028.7890 020.5966 0025801 264.4436 221.8704 16.26214442000002

Verfolge JUNO in Echtzeit mit AllMySat

Download on the App Store